Regional Weather Roundup
Issued by NWS Charleston, SC

Current Version | Previous Version | Graphics & Text | Print | Product List | Glossary On
Versions: 1 2 3 4 5 6 7 8 9 10 11 12 13 14 15 16 17 18 19 20 21 22 23 24 25 26 27 28 29 30 31 32 33 34 35 36 37 38 39 40 41 42 43 44 45 46 47 48 49 50
000
ASUS42 KCHS 222325
RWRCHS

REGIONAL WEATHER ROUNDUP
NATIONAL WEATHER SERVICE CHARLESTON SC
600 PM EST SAT NOV 22 2014

NOTE: "FAIR" INDICATES FEW OR NO CLOUDS BELOW 12,000 FEET WITH NO
SIGNIFICANT WEATHER AND/OR OBSTRUCTIONS TO VISIBILITY.

NOT ALL STATIONS ARE QUALITY CONTROLLED BY THE NATIONAL
WEATHER SERVICE. USE DATA WITH CAUTION...ESPECIALLY
DEWPOINT OBSERVATIONS.

SCZ027-030-031-034>040-042>050-230000-
...SOUTHEAST SOUTH CAROLINA...

CITY           SKY/WX    TMP DP  RH WIND       PRES   REMARKS
N CHARLESTON   PTCLDY    56  50  80 E6        30.35S
WATERFRONT PRK   N/A     55 N/A N/A MISG        N/A
MOUNT PLEASANT FAIR      55  54  94 CALM      30.35S
JOHNS ISLAND   CLEAR     55  54  94 NE10      30.34F
PINOPOLIS        N/A     61  48  63 E6        30.28S
MONCKS CORNER  FAIR      57  52  82 E3        30.35R
SUMMERVILLE    FAIR      55  50  82 CALM      30.35S
BEAUFORT MCAS  MOCLDY    58  51  78 E8        30.33F
BEAUFORT ARPT  MOCLDY    55  54  94 NE12      30.31F
HILTON HEAD IS PTCLDY    57  54  88 NE9       30.32F
WALTERBORO     CLEAR     57  45  62 E5        30.34S
ALLENDALE      FAIR      57  43  58 CALM      30.30F

...SOUTHERN MIDLANDS AND PEE DEE...

CITY           SKY/WX    TMP DP  RH WIND       PRES   REMARKS
GEORGETOWN     NOT AVBL
KINGSTREE      NOT AVBL
ORANGEBURG     MOCLDY    55  32  41 NE3       30.34S
BARNWELL       FAIR      54  34  47 CALM      30.33F
AIKEN          CLOUDY    55  30  38 E6        30.35F
MANNING        NOT AVBL
COLUMBIA       PTCLDY    56  27  32 CALM      30.35R
SUMTER         CLEAR     52  26  36 NE2       30.34S
FLORENCE       CLEAR     50  32  50 NE5       30.36F
MYRTLE BEACH   CLEAR     55  48  76 E10       30.37F
N MYRTLE BEACH CLEAR     51  47  86 E6        30.36F

$$

GAZ063-065-086>088-099>101-113>116-118-119-134>141-150-230000-
...SOUTHEAST GEORGIA...

CITY           SKY/WX    TMP DP  RH WIND       PRES   REMARKS
SAVANNAH ARPT  CLOUDY    60  51  72 E9        30.30F
HUNTER AAF     LGT RAIN  59  54  82 E12       30.26F
FORT STEWART   CLOUDY    61  54  77 NE10      30.26F
STATESBORO     NOT AVBL
SYLVANIA       CLOUDY    63  50  63 SE9       30.30S
CLAXTON        LGT RAIN  61  54  77 E5        30.27F

...CSRA...CENTRAL AND FAR SOUTHEAST GEORGIA...

CITY           SKY/WX    TMP DP  RH WIND       PRES   REMARKS
THOMSON        CLOUDY    54  40  60 CALM      30.34S
AUGUSTA-BUSH   PTCLDY    54  28  36 E5        30.31F
AUGUSTA-DANIEL MOCLDY    61  27  27 E7        30.31F
SWAINSBORO     LGT RAIN  64  52  63 E8        30.28S
VIDALIA        CLOUDY    63  54  72 E8        30.27S
HAZLEHURST     LGT RAIN  63  55  76 E7        30.24F
ALMA           CLOUDY    60  54  80 E7        30.25R
WAYCROSS       DRIZZLE   63  60  92 E12       30.24R
JESUP          CLOUDY    63  59  88 E8        30.26S
BAXLEY         DRIZZLE   61  55  82 E3        30.25S
BRUNSWICK        N/A     61  55  82 NE8       30.25S
SAINT SIMONS   CLOUDY    62  58  86 NE10      30.24F

$$

SCZ027-028-034-036>038-045-046-048>050-GAZ119-141-230000-
...LAKE AND SUPPLEMENTAL COASTAL OBSERVATIONS...

STATION/POSITION TIME  TEMP    WIND        PRES    WAVE   SWELL
                       AIR SEA DIR/SP/G            HT/PER HT/PER/DIR
                 (UTC) (F)     (DEG/KT/KT) (MB)    (FT/S) (FT/S/D)
UPR LAKE MARION  NOT AVBL
WINYAH BAY       2300   56      80/  9     1028.0S
LAKE MURRAY      2200   57      70/  2/  5 1027.1S
ACE BASIN NERRS  2300   57      40/  4     1027.0S
FORT PULASKI     2300   57      40/ 17/ 22 1026.1R
SAPELO ISLAND    NOT AVBL

$$

ANZ835-935-AMZ111-154-330-350-352-354-370-450-454-472-230000-
...C-MAN AND BUOY OBSERVATIONS...

STATION/POSITION TIME  TEMP    WIND        PRES    WAVE   SWELL
                       AIR SEA DIR/SP/G            HT/PER HT/PER/DIR
                 (UTC) (F)     (DEG/KT/KT) (MB)    (FT/S) (FT/S/D)
FOLLY BEACH CMAN 2300   56      40/ 12/ 14 1027.8F
BUOY 41004       2300   68 76  100/ 14/ 17 1026.3F   4/ 5   3/ 9
BUOY 41008       2300   67 64  100/ 12/ 14 1024.6F   6/ 8   3/140/ 8
CAPERS NEARSHORE 2200   58      80/ 16/ 19   N/A
FRIPP NEARSHORE  NOT AVBL


STATION/POSITION TIME  TEMP    WIND        PRES    WAVE   SWELL
                       AIR SEA DIR/SP/G            HT/PER HT/PER/DIR
                 (UTC) (F)     (DEG/KT/KT) (MB)    (FT/S) (FT/S/D)
5E ST. MARYS GA  2300      62                N/A     6/ 8
FRYING PAN BUOY  2300   62 63   70/ 14/ 16 1028.5F   4/ 5   2/ 80/ 8
BUOY 41025       2300   59      60/  2/  4 1030.0F   3/ 8   3/ 50/ 8
CAPE LOOKOUT NC  2300   51      10/  5/  6 1029.7R
BUOY 41002       2236   65 73  100/ 10/ 16 1029.2F   5/ 8   5/ 50/ 8
BUOY 41010       2300   73 78   90/ 23/ 29 1022.4F   9/ 9   5/110/ 9
ST AUGUSTINE FL  2300   68     100/ 17/ 19 1022.8F


$$



USA.gov is the U.S. government's official web portal to all federal, state and local government web resources and services.